GFSGBSN_sfc_thetae_057.txt.gz
Theta_e
316 316 316 316 315 315 316 316 315 315 315 315 315 316 316 316 316 317 317 317 317 316 317 317 317 318 312 302 301 313 345 334 330 315 313 308 304 304 303 306 313 316 321 324 327 327 326
316 316 316 316 315 315 315 315 315 315 315 316 316 317 316 316 317 317 317 316 317 316 318 318 317 319 307 294 309 315 327 326 323 315 310 308 304 305 303 304 310 314 315 318 321 321 325
315 315 316 315 315 315 315 315 315 315 315 315 316 316 316 316 316 317 316 315 316 317 321 320 318 316 307 301 314 314 313 320 322 314 308 310 308 305 304 304 310 310 308 311 315 320 324
315 315 315 315 315 314 314 314 315 315 315 316 316 316 316 315 316 315 315 314 316 319 318 318 321 315 303 316 316 317 312 310 321 318 308 312 309 303 302 305 304 304 304 300 310 317 324
315 315 315 314 314 315 315 315 315 316 315 315 315 315 315 315 314 314 313 314 317 320 322 322 312 307 302 320 312 310 313 312 317 314 311 315 306 299 300 298 294 295 295 301 306 318 322
315 315 315 314 314 315 315 315 315 315 315 314 314 314 314 313 312 312 312 314 316 321 320 320 318 301 302 299 302 305 308 315 311 310 308 303 300 294 293 293 292 292 295 299 302 315 320
315 315 315 315 315 315 315 315 315 315 315 314 314 313 313 312 311 311 307 296 294 292 294 290 293 300 299 301 304 304 305 310 309 303 296 299 293 292 295 298 298 298 299 301 306 315 317
315 315 315 315 315 315 315 315 314 314 314 314 313 312 312 311 310 310 302 296 297 298 289 297 297 297 299 297 296 301 303 305 305 298 300 296 293 298 299 299 298 297 295 297 304 311 316
315 315 315 315 315 315 315 314 314 314 313 313 312 312 311 310 310 303 298 297 301 294 286 292 295 296 297 296 295 299 301 300 301 299 300 296 299 302 300 297 297 296 296 297 300 307 313
315 315 315 315 315 315 314 314 314 313 313 312 312 311 310 309 300 299 298 299 301 297 283 290 293 296 297 297 294 303 303 299 299 299 301 299 305 302 299 298 299 293 302 302 302 301 297
315 315 315 315 315 315 314 314 314 313 312 312 312 311 309 308 297 297 300 301 300 293 276 295 293 300 296 292 295 297 303 300 294 296 295 297 301 300 299 300 303 299 304 302 302 298 297
315 315 315 315 315 315 314 313 313 313 312 312 311 310 309 302 298 301 302 299 294 283 278 289 292 291 291 292 294 297 297 301 302 299 298 297 303 304 303 306 306 307 302 300 298 296 291
314 314 314 314 314 314 314 313 313 312 312 311 309 308 306 306 295 302 300 292 282 278 290 287 286 289 289 287 290 293 292 293 291 288 289 295 298 302 305 302 306 305 296 288 287 288 291
314 314 315 314 314 314 313 313 313 312 312 310 308 306 304 307 305 303 294 288 277 287 284 288 288 288 286 289 287 290 288 288 294 292 288 285 289 299 303 302 300 301 296 289 283 285 289
314 314 314 314 314 313 313 313 312 312 311 309 307 298 299 302 305 298 290 280 280 285 288 287 286 284 283 288 288 287 287 289 293 293 286 286 288 297 300 304 305 301 298 300 290 286 289
314 314 314 314 313 313 313 313 312 312 311 309 300 293 296 304 301 293 286 283 285 291 290 288 282 285 280 283 284 283 285 291 292 295 294 290 284 293 298 303 304 304 302 294 290 285 283
313 313 313 314 314 313 313 313 312 312 310 308 293 290 299 304 297 289 282 282 289 294 293 287 285 283 282 283 283 283 285 291 294 293 295 291 289 289 296 295 297 298 299 296 297 291 290
314 314 314 314 313 313 313 313 312 310 308 302 290 285 298 299 289 286 284 288 294 292 294 290 288 286 284 285 283 284 285 290 296 294 289 294 290 287 289 299 300 297 298 295 296 289 287
313 313 314 313 313 313 313 313 312 310 309 303 291 288 298 296 283 283 287 290 292 292 292 290 288 288 287 284 281 286 289 296 296 294 291 293 289 282 288 291 295 293 300 302 297 291 289
313 312 313 313 313 313 313 313 311 310 309 297 293 285 290 290 288 287 286 287 289 295 294 293 291 291 286 282 285 285 288 293 295 294 298 296 289 284 282 286 289 288 291 294 296 295 290
312 312 312 313 313 313 313 312 311 310 309 298 289 285 288 284 285 288 290 287 287 288 294 294 290 289 287 282 282 283 287 288 293 296 295 292 285 286 287 288 289 289 290 292 291 295 295
313 312 312 313 312 312 313 312 311 310 308 295 288 288 289 291 292 290 289 287 288 291 290 289 288 291 290 284 284 281 284 284 287 290 290 291 285 287 284 288 289 288 292 295 296 298 295
312 312 312 312 312 312 311 312 312 311 307 299 296 299 295 292 291 289 289 289 289 291 291 294 293 290 288 290 292 291 289 289 290 288 288 288 287 283 279 290 293 292 295 297 300 299 298
312 312 312 312 311 311 312 312 312 312 310 305 303 300 292 287 290 290 291 292 291 291 289 292 293 290 294 298 294 291 289 289 289 291 292 288 287 284 278 286 288 294 300 300 298 298 299
312 313 312 311 311 312 312 312 312 313 312 307 306 301 293 287 291 291 292 292 291 292 291 291 294 295 295 292 283 281 281 284 287 290 291 292 289 281 280 286 294 296 296 295 294 294 299
312 312 311 311 311 311 312 312 313 313 312 309 306 306 297 290 290 294 292 292 288 288 290 291 296 295 294 288 284 280 279 285 284 287 291 291 290 286 285 287 287 293 297 302 302 290 300
311 311 310 311 310 311 312 312 313 313 313 309 306 306 298 291 294 295 292 291 293 291 288 291 290 290 293 288 283 283 282 287 284 284 284 286 286 285 285 287 292 297 298 303 289 290 298
312 310 310 310 310 311 312 312 313 313 313 308 306 306 301 294 296 297 298 295 295 293 289 292 288 290 288 284 284 283 285 286 286 288 286 286 285 286 289 287 287 299 300 292 294 297 298
311 310 310 310 311 311 312 312 313 313 313 311 304 309 306 298 298 302 302 303 301 299 296 295 292 292 291 287 287 287 286 287 286 282 292 285 288 287 285 289 297 299 301 300 299 297 297

GFSGBSN_sfc_thetae_060.txt.gz
Theta_e
316 316 316 316 315 315 315 316 316 316 316 316 316 316 316 316 316 317 318 318 317 317 317 317 317 317 310 299 300 313 336 330 327 322 323 312 316 306 307 311 313 319 321 326 330 328 326
316 316 316 315 315 315 315 315 315 315 315 315 316 317 316 316 317 317 317 317 316 316 318 320 317 318 304 291 305 315 327 324 326 316 316 308 315 308 305 305 310 314 319 320 321 319 322
315 315 315 315 315 315 315 315 315 315 315 315 315 316 315 315 316 316 316 316 315 317 319 321 319 315 305 300 313 315 316 321 320 313 309 308 309 308 303 301 308 309 304 308 311 316 321
315 315 315 315 315 314 315 314 314 314 315 315 315 315 315 315 315 315 314 314 315 319 319 320 321 312 301 315 315 316 310 312 321 316 307 308 307 302 300 303 302 302 302 300 307 313 320
315 315 315 315 315 315 315 315 314 315 315 315 315 315 314 314 313 313 313 313 317 321 321 322 309 304 299 318 308 305 308 308 317 314 313 314 306 298 299 296 294 294 294 298 304 313 320
315 315 315 315 315 315 315 315 315 315 315 314 314 313 313 313 312 312 312 313 323 321 320 319 316 298 299 297 300 303 303 313 313 312 309 302 299 293 291 292 288 291 291 296 302 310 317
315 315 315 315 314 315 315 315 315 315 314 314 314 313 312 312 311 311 307 297 293 292 295 289 292 294 297 299 301 303 303 308 306 304 297 298 292 292 294 296 296 297 297 298 303 311 315
315 315 315 315 315 315 315 315 314 314 314 314 313 313 312 311 311 311 300 296 296 297 289 294 295 295 297 295 295 300 303 304 302 297 297 293 291 297 298 296 296 296 294 295 301 308 314
315 315 315 315 315 315 315 314 314 314 313 313 313 312 311 310 309 302 298 296 300 292 286 291 294 294 295 294 294 296 299 297 297 298 296 292 295 300 297 294 293 293 295 294 297 305 316
315 315 315 315 315 315 314 314 314 313 313 312 312 312 310 309 299 298 295 299 301 296 282 288 290 294 297 295 291 300 299 297 296 297 299 297 302 299 296 294 295 287 298 299 298 297 297
315 315 315 315 314 314 314 314 313 313 312 312 312 311 309 308 296 295 298 300 296 291 275 292 290 298 295 291 293 295 301 298 293 294 294 296 298 299 295 296 298 294 299 298 298 296 296
314 314 314 314 314 314 313 313 313 313 312 312 312 310 309 302 297 300 301 299 292 282 276 287 291 290 289 290 292 296 300 302 302 297 297 295 300 299 301 302 301 301 299 296 295 293 289
314 314 314 313 314 314 313 313 313 312 312 311 310 308 305 305 298 302 300 291 281 277 289 285 284 288 286 286 289 291 293 292 289 286 287 294 297 298 301 297 301 300 294 286 285 286 289
314 314 314 314 314 313 313 313 313 312 312 310 308 306 302 305 304 301 293 287 277 286 282 287 287 287 285 287 285 289 287 287 293 290 286 284 287 295 298 297 296 297 294 287 281 283 289
314 314 314 314 313 313 313 313 312 312 311 309 306 296 296 300 303 296 290 279 280 283 288 286 285 283 282 286 287 285 285 288 292 291 285 285 287 296 298 300 298 296 294 298 288 286 286
313 313 313 313 313 313 313 313 312 312 311 309 297 290 294 303 299 293 286 283 283 289 291 287 282 284 280 282 283 281 283 290 292 294 291 288 281 292 296 299 300 295 300 293 289 284 282
314 313 313 313 314 313 313 313 313 312 310 308 291 289 297 302 295 290 282 281 288 293 293 286 284 282 282 282 283 282 283 290 293 293 293 287 286 286 293 292 292 294 294 294 296 292 288
314 313 313 313 313 313 314 313 312 310 308 303 289 283 297 297 288 284 283 286 292 291 293 289 287 285 283 284 282 282 284 288 295 293 287 289 289 284 287 295 298 295 292 294 294 290 290
314 313 313 313 313 313 314 313 311 310 309 303 292 290 297 295 282 282 285 288 290 290 290 290 288 287 286 284 281 284 288 295 296 293 289 291 287 280 284 287 292 290 292 290 292 292 292
313 312 313 313 313 313 313 312 310 309 309 297 292 284 289 289 287 287 287 286 287 293 291 292 289 289 285 282 284 283 287 293 295 295 300 294 286 284 279 283 287 285 289 291 287 288 292
313 312 312 312 313 313 312 312 311 310 308 297 288 284 288 286 287 290 290 288 286 286 292 293 289 289 288 281 282 282 286 288 293 296 294 288 283 283 285 287 288 287 287 289 288 289 287
312 312 312 312 313 311 311 312 312 310 307 294 288 291 293 291 292 290 290 288 288 290 290 287 289 290 290 286 284 282 284 282 286 288 288 290 279 287 284 288 288 287 289 290 291 292 292
312 312 312 312 311 311 312 312 312 311 307 297 298 300 295 292 291 289 289 289 289 292 291 292 292 288 286 289 293 293 291 288 286 286 284 286 284 284 278 286 286 284 289 293 296 296 297
312 312 312 311 311 312 312 312 312 312 309 304 302 300 293 288 290 290 291 292 292 291 290 292 294 290 293 296 293 290 289 289 288 287 287 285 284 286 278 284 281 292 300 299 296 295 296
312 312 311 311 312 311 312 312 312 312 312 306 305 301 294 287 291 292 293 291 292 292 290 291 293 295 294 289 283 279 278 280 284 287 287 290 287 283 278 282 290 296 296 295 292 293 296
312 311 311 311 311 311 311 312 312 313 312 308 307 306 298 291 291 295 292 292 288 288 289 290 294 295 293 290 286 280 278 282 281 285 291 290 289 284 285 281 287 292 296 300 300 288 297
311 310 310 310 311 311 312 312 313 313 313 308 304 306 299 292 295 295 292 291 294 290 288 291 290 289 293 287 283 281 281 285 281 281 282 284 285 281 282 285 291 294 298 302 291 289 297
311 310 310 310 311 311 312 313 313 313 313 306 302 305 301 295 296 298 299 296 295 293 288 290 287 289 289 285 284 282 284 285 285 287 285 285 283 285 285 286 286 296 298 292 295 298 297
310 310 309 310 311 312 312 313 313 313 313 309 303 309 307 299 296 298 300 303 302 300 295 294 289 292 292 287 287 287 285 286 286 282 291 285 287 285 286 286 294 297 297 297 299 298 298

GFSGBSN_sfc_thetae_063.txt.gz
Theta_e
316 316 316 316 316 315 316 315 315 316 316 316 316 316 316 316 316 316 316 316 317 317 317 318 319 317 314 303 303 316 333 331 329 331 325 320 320 317 311 317 321 324 325 328 331 331 329
315 316 316 316 315 315 315 315 315 315 315 315 316 316 316 316 316 317 316 316 316 316 318 320 319 318 310 297 311 318 327 325 327 331 322 322 318 318 313 316 315 319 320 325 325 326 327
315 316 316 316 315 315 315 315 315 315 315 315 316 316 315 316 316 316 315 315 315 317 320 322 319 315 307 303 316 319 320 324 328 324 320 320 323 316 314 308 316 316 312 313 314 317 322
315 316 316 315 315 315 315 315 315 315 315 315 315 315 315 315 315 315 314 314 316 319 321 320 322 316 305 316 320 318 316 322 324 325 318 316 317 315 309 311 307 305 306 302 311 315 322
315 315 315 315 315 315 315 315 315 315 315 315 315 315 314 314 314 314 313 315 320 321 321 322 317 312 299 316 306 307 313 309 321 321 317 316 314 309 307 304 303 304 298 300 304 317 322
315 315 315 315 315 315 315 315 315 315 315 314 314 314 314 314 313 312 312 316 324 322 321 320 316 304 304 300 304 306 308 319 315 313 309 308 309 303 303 302 294 298 298 303 302 313 320
315 315 315 315 315 315 315 315 315 315 314 314 314 313 313 313 312 311 310 305 302 301 302 297 297 297 300 304 305 304 307 315 313 308 300 305 299 297 300 302 302 302 302 301 308 312 316
315 315 315 315 315 315 315 315 314 314 314 314 313 313 313 312 311 311 306 303 302 302 296 299 298 298 301 302 299 302 309 309 308 303 303 299 296 301 302 301 300 301 301 302 307 312 317
315 315 315 315 315 315 314 314 314 313 313 313 313 313 312 311 310 307 304 303 307 302 295 296 299 299 299 301 297 298 303 302 305 303 302 300 301 303 300 299 298 299 298 300 303 306 313
315 315 315 315 315 315 314 314 313 313 313 313 313 312 311 309 305 303 302 305 306 303 292 292 295 298 301 299 296 302 307 301 300 302 303 303 307 301 300 298 299 296 302 301 301 302 300
315 315 315 315 314 314 314 313 313 313 313 313 313 311 310 308 305 303 305 307 302 298 283 294 295 303 300 296 297 298 308 303 298 298 300 301 302 301 299 299 301 298 302 300 301 300 301
315 315 314 314 314 314 313 313 313 313 313 312 312 310 309 307 304 306 307 304 300 290 282 290 294 293 294 295 296 298 302 305 304 300 301 300 304 305 305 304 302 303 302 301 300 298 292
314 314 314 314 314 314 313 313 313 313 312 312 310 308 307 308 302 308 306 301 290 284 292 288 289 292 291 291 292 294 296 296 295 292 293 297 299 303 305 303 304 301 298 292 291 291 289
314 314 315 314 314 313 313 313 313 312 312 310 308 305 304 308 308 305 302 296 284 288 288 291 291 291 288 290 290 291 293 292 296 295 294 292 291 299 301 302 300 301 300 293 288 290 292
315 315 314 314 314 313 313 313 312 312 311 309 306 302 305 306 306 304 301 288 287 289 291 289 290 287 287 289 290 289 291 292 294 294 291 292 292 298 300 301 302 301 297 303 296 297 295
315 315 314 314 313 313 313 313 312 312 311 309 302 299 302 306 302 302 296 288 289 293 294 291 286 289 285 287 287 288 287 294 293 295 297 292 284 293 298 301 303 302 306 297 298 290 289
313 314 314 313 313 313 314 313 312 311 309 308 300 299 304 305 304 299 291 289 291 296 296 291 289 287 288 287 288 287 287 293 296 294 296 294 289 288 293 295 298 299 298 301 302 299 293
313 314 314 313 313 313 314 313 311 310 308 305 298 293 304 303 296 293 290 290 293 293 297 294 292 291 288 289 287 287 287 291 297 297 291 295 291 285 287 294 299 298 297 300 296 296 300
313 314 313 313 313 313 313 312 311 309 308 304 294 295 304 304 290 289 290 290 292 292 293 293 291 291 291 288 285 288 290 296 297 296 293 296 289 283 286 293 297 294 297 298 298 300 298
312 313 313 313 313 313 312 312 310 309 308 304 296 292 297 297 295 292 288 288 289 294 293 295 293 294 291 289 291 287 289 295 297 297 300 298 290 286 282 286 289 289 292 295 293 294 297
312 312 313 313 312 312 312 312 311 310 307 303 296 292 294 290 292 291 291 290 287 288 294 294 292 291 289 287 287 286 289 292 294 297 298 295 286 288 289 289 289 288 289 291 291 294 294
312 312 312 312 312 312 312 313 312 310 305 302 296 295 296 293 293 291 290 289 288 290 290 289 288 290 290 286 288 286 288 289 290 295 294 294 286 288 286 289 290 287 290 292 293 294 295
312 312 312 311 312 312 312 312 312 310 309 302 300 301 296 293 292 290 289 290 290 293 292 293 292 290 288 290 294 295 295 295 294 292 292 290 287 286 282 288 289 286 291 293 295 299 298
312 312 311 312 312 312 312 312 312 312 310 307 304 301 294 289 291 291 292 293 291 291 290 292 294 290 295 300 298 297 295 294 294 294 295 288 286 287 283 285 277 292 302 300 298 299 300
311 311 311 312 311 311 312 312 312 312 311 308 307 302 295 289 292 293 293 291 292 292 291 291 294 298 300 295 290 286 287 288 290 292 292 294 289 285 281 281 288 296 298 299 299 296 300
311 310 311 311 311 311 312 313 313 313 312 310 309 308 299 293 292 295 293 293 289 289 290 292 298 300 297 292 287 282 280 284 283 286 293 292 293 287 284 280 283 293 299 302 303 295 300
310 310 311 311 311 312 312 313 313 313 312 311 309 310 300 294 299 297 293 292 295 292 289 292 294 293 296 289 285 283 282 285 281 282 282 284 285 283 283 281 286 294 297 302 292 294 301
310 310 310 310 311 312 312 312 313 313 313 311 307 309 303 299 300 300 300 296 296 294 289 293 293 292 290 286 286 285 284 286 285 287 285 284 283 282 284 280 280 293 296 295 299 301 301
309 310 310 310 311 312 312 313 313 313 314 310 305 310 309 301 300 304 304 305 303 301 295 295 292 292 292 287 288 288 285 287 286 283 289 285 287 287 288 288 295 295 297 304 305 302 302

GFSGBSN_sfc_thetae_069.txt.gz
Theta_e
318 318 318 317 318 318 317 317 317 318 318 317 317 318 318 317 317 318 318 318 318 318 318 319 321 321 319 315 311 321 340 338 335 325 331 329 326 325 319 321 325 324 327 327 332 336 335
317 317 317 317 317 316 316 316 316 316 316 317 317 317 318 318 317 317 317 317 317 318 319 321 322 320 320 309 317 321 327 331 328 321 326 329 325 327 321 319 318 322 325 326 329 335 332
317 317 317 317 317 316 316 315 316 316 316 316 317 317 317 317 317 317 316 316 319 320 322 323 323 321 318 311 319 320 325 326 326 323 324 329 327 323 320 315 320 319 315 320 323 332 331
317 317 317 317 317 317 316 316 315 315 315 316 316 317 317 317 316 315 315 315 320 321 321 322 322 325 312 316 320 316 322 325 329 330 329 330 327 321 320 318 313 312 315 311 319 326 329
317 317 316 316 317 317 316 316 316 315 315 316 316 316 316 316 315 315 314 315 323 323 322 323 325 323 308 316 312 315 319 322 326 330 328 326 323 317 318 310 308 309 305 309 314 324 324
317 317 317 316 316 317 316 316 315 315 315 315 315 315 315 315 314 313 313 314 322 322 324 325 322 313 310 308 311 314 317 322 323 324 319 319 317 312 313 309 301 304 304 308 310 317 319
317 317 316 316 316 317 316 316 315 315 315 315 315 315 314 314 313 312 313 318 317 314 313 306 307 306 307 312 314 313 318 321 321 320 309 314 309 305 309 312 310 309 308 306 312 317 317
316 316 316 316 316 316 316 315 315 315 315 315 315 314 314 313 312 311 314 311 309 311 305 308 307 308 309 311 306 311 321 314 313 311 314 310 304 310 311 311 309 308 307 307 310 315 315
316 316 316 316 316 316 316 315 315 315 315 315 314 314 313 312 311 311 314 311 316 314 305 306 307 306 307 309 306 305 312 315 311 308 310 307 309 311 310 308 306 307 306 306 307 311 315
317 317 317 317 316 316 315 315 315 315 314 314 314 313 312 310 308 316 313 316 317 314 301 301 303 305 307 307 303 308 311 310 309 307 307 308 311 309 308 306 308 304 309 308 307 306 304
317 317 317 316 316 315 315 315 314 314 314 314 313 312 310 308 316 314 314 318 315 312 291 301 302 310 307 304 305 305 310 309 304 306 308 306 307 306 306 307 309 305 310 308 307 305 306
317 317 316 316 315 315 314 314 314 314 313 313 312 311 310 315 318 316 318 317 312 298 290 297 302 301 301 303 303 305 305 309 309 304 307 306 313 311 308 311 310 311 307 308 308 305 298
317 315 315 315 315 315 314 314 314 313 312 312 310 308 310 316 313 317 317 312 299 294 301 297 298 300 300 300 300 301 301 302 300 297 298 302 304 309 312 307 310 308 305 298 297 297 296
316 315 315 316 315 314 314 314 314 313 311 310 308 306 311 316 318 317 314 305 294 299 298 300 298 299 297 300 301 299 300 299 303 301 299 297 296 303 309 307 306 306 305 300 294 296 298
316 315 315 315 315 314 314 314 313 312 311 310 307 317 318 317 317 316 308 299 300 299 300 298 299 296 298 299 297 298 299 299 301 302 297 297 297 306 307 309 309 306 303 308 303 306 301
315 314 314 315 314 314 314 313 312 312 311 309 313 314 313 318 318 313 305 299 300 302 301 301 296 299 296 298 296 298 298 301 299 301 303 300 295 304 305 308 309 307 311 302 302 296 296
315 314 314 314 315 314 313 313 312 311 310 309 313 309 314 318 316 309 301 302 301 303 302 299 298 297 298 297 298 297 297 300 301 300 302 300 297 298 302 302 301 303 303 305 306 303 298
314 314 314 314 313 313 314 314 312 310 308 311 313 306 315 317 307 309 302 300 296 301 303 301 301 299 298 297 296 296 296 299 302 302 298 301 297 294 297 302 305 304 304 305 301 300 303
314 313 314 312 313 314 314 313 312 310 309 312 310 310 315 315 302 301 301 300 300 299 299 299 298 299 301 297 293 296 297 302 301 300 298 301 296 290 293 298 301 300 303 304 305 306 303
314 313 313 313 314 314 314 313 311 310 310 311 310 306 309 308 307 302 299 297 296 300 300 299 298 299 297 296 298 294 295 298 301 300 301 300 297 294 291 294 298 296 299 303 303 300 301
313 313 313 313 314 314 314 313 312 310 310 311 310 304 305 299 300 301 301 298 295 294 300 300 296 295 294 292 294 294 297 298 300 301 300 300 292 295 296 297 297 296 297 299 300 304 300
313 313 312 313 313 313 313 313 313 311 309 312 307 306 306 302 300 299 296 292 292 295 296 294 294 295 295 292 294 293 296 296 296 299 298 300 293 295 293 297 296 293 295 296 297 299 300
312 312 312 313 313 313 313 314 314 312 310 311 311 310 307 299 298 298 295 294 293 296 298 298 296 296 294 295 298 299 301 301 300 297 296 295 294 292 289 293 294 290 294 295 297 299 299
312 312 312 313 313 313 313 314 314 313 311 314 311 309 306 298 298 297 295 296 295 296 294 298 298 295 299 303 302 302 300 300 299 299 300 295 294 293 289 291 283 295 300 299 298 300 301
312 311 312 312 313 313 313 314 314 313 312 314 313 310 305 300 301 299 297 297 299 299 297 297 298 301 304 300 294 293 293 293 295 297 298 299 295 290 286 287 291 294 297 298 296 298 306
311 311 311 312 312 313 313 313 313 313 312 314 314 314 309 304 301 301 298 298 297 297 298 297 304 306 303 297 294 288 288 290 289 292 299 297 297 292 289 285 282 293 300 302 302 293 306
311 311 311 312 312 313 313 313 313 313 313 314 314 316 311 304 307 305 301 299 301 296 295 298 299 299 302 292 289 288 288 290 286 286 289 291 291 289 289 287 290 298 301 301 291 294 304
311 311 311 311 312 313 313 313 313 314 314 315 315 319 311 308 308 308 307 302 303 302 294 300 298 298 295 290 290 290 288 289 287 290 290 290 288 288 290 286 284 302 300 293 301 301 301
311 310 311 311 312 313 313 313 314 314 314 313 314 319 317 310 310 314 312 311 309 307 304 302 299 298 299 291 291 290 288 290 288 286 293 287 292 290 291 291 301 302 301 304 306 299 299

GFSGBSN_sfc_thetae_072.txt.gz
Theta_e
318 319 319 318 319 318 317 317 317 318 318 317 317 318 318 318 318 318 318 319 318 319 320 320 321 322 317 316 314 326 343 338 331 324 319 329 324 324 320 322 324 323 326 329 330 330 335
318 318 318 318 318 318 316 316 316 317 317 317 318 318 318 318 318 318 318 318 317 320 321 321 322 322 314 311 318 321 324 331 325 319 322 331 326 327 322 321 319 324 325 325 328 327 334
318 318 318 317 317 317 317 316 316 316 316 317 317 318 318 318 317 317 317 316 317 322 324 324 324 320 320 315 319 320 322 326 326 322 318 331 330 325 324 318 321 319 316 319 323 325 332
318 318 318 318 318 317 317 316 316 316 316 317 317 317 317 317 317 316 315 315 316 323 324 323 324 322 319 317 320 317 322 324 328 328 321 328 330 323 321 322 315 312 313 310 317 322 328
318 318 317 318 318 317 317 317 316 316 316 316 316 316 316 316 316 315 314 315 317 325 325 324 323 322 315 318 313 316 320 320 325 324 326 329 327 320 317 313 308 310 303 307 312 320 322
318 317 317 317 317 317 317 316 316 316 316 316 316 315 315 315 315 314 313 314 322 322 326 325 323 314 314 309 312 314 317 320 320 322 322 320 318 312 312 309 301 304 304 306 308 315 319
318 317 316 316 317 317 317 316 316 316 316 316 316 315 314 314 313 312 313 317 316 317 317 311 310 310 309 313 315 313 316 317 320 320 311 316 310 306 309 310 311 308 307 305 308 314 315
318 317 317 316 317 317 317 316 315 315 316 316 315 314 314 313 312 311 312 312 310 312 304 312 309 309 310 312 307 312 320 314 314 310 313 309 306 312 312 312 310 309 306 306 310 312 313
318 318 318 317 317 317 316 315 315 315 315 315 314 314 313 312 311 312 314 313 318 316 305 308 309 308 308 310 307 308 314 315 311 307 310 306 308 312 310 309 307 308 306 306 306 310 312
319 318 318 317 317 316 316 315 315 315 315 314 314 313 312 310 310 316 314 317 319 315 300 303 304 306 307 308 304 310 311 310 310 307 308 309 313 310 308 306 308 303 309 308 307 306 301
319 318 317 317 316 316 315 315 315 315 314 314 313 313 311 309 311 314 315 319 317 312 290 303 304 311 308 305 306 306 311 309 303 306 308 305 306 307 306 307 310 306 311 308 307 305 304
319 317 316 316 316 315 315 314 315 314 314 313 312 311 310 315 314 318 318 318 314 297 290 299 304 302 302 304 304 306 306 309 309 304 306 306 311 310 308 310 310 311 308 307 307 305 298
318 317 316 315 316 315 315 314 314 313 312 312 311 309 309 316 313 318 318 313 298 293 304 298 299 302 301 301 302 302 302 301 299 296 297 301 303 308 311 307 309 309 304 296 295 296 295
317 317 315 316 315 315 315 314 314 313 312 311 308 307 314 317 319 318 315 305 294 301 300 303 300 300 298 302 301 302 300 298 303 302 298 296 296 302 307 307 305 305 304 298 292 294 297
317 315 315 315 315 314 314 313 313 312 312 310 307 317 315 319 319 317 308 299 299 300 302 301 301 298 299 301 299 300 299 299 302 304 297 296 296 305 307 307 308 305 302 307 300 303 299
316 315 315 315 315 313 313 314 313 312 311 309 311 316 315 319 320 314 305 299 302 304 303 302 297 300 297 300 298 298 299 302 301 304 305 299 293 302 305 308 307 305 307 300 302 294 294
315 315 314 315 313 313 314 314 313 312 310 309 313 311 316 319 318 310 301 302 303 305 304 300 299 298 299 298 299 298 299 302 303 302 303 300 297 296 302 301 301 302 302 303 304 302 296
315 315 315 314 313 314 315 314 312 310 309 312 316 306 316 318 307 309 302 302 299 303 305 302 301 300 298 299 297 297 297 300 304 303 298 302 298 293 296 303 306 305 303 303 300 299 302
315 315 315 314 314 315 315 314 312 310 310 310 311 311 317 316 301 302 303 302 302 301 301 301 299 301 301 298 294 297 298 303 303 301 298 301 296 291 293 297 302 299 301 303 303 303 301
314 314 314 314 314 315 315 313 312 311 310 311 312 304 310 310 308 303 301 299 298 301 301 300 299 301 298 297 299 295 296 300 302 301 305 302 296 293 290 295 298 297 298 301 300 298 299
314 314 313 314 314 315 315 314 313 311 310 313 311 304 306 300 301 302 302 300 298 296 301 301 298 296 295 293 294 294 297 298 300 303 301 299 292 294 296 297 298 297 297 298 298 301 298
313 313 313 314 314 315 315 314 314 312 310 314 306 306 307 303 303 300 298 297 295 296 297 297 295 297 297 293 294 293 295 296 296 299 299 301 292 295 292 296 296 295 297 297 298 300 302
313 313 312 313 314 314 314 315 314 312 311 312 313 314 309 301 301 300 297 297 296 297 300 299 297 296 295 296 299 300 300 300 299 297 297 297 295 292 288 294 294 290 296 297 298 300 300
313 313 312 313 313 314 314 315 315 314 312 315 313 310 307 300 300 298 297 298 298 298 296 299 300 296 300 305 304 302 301 299 299 298 299 295 294 292 289 291 282 295 301 301 298 299 300
312 312 312 312 313 313 314 314 315 315 313 316 315 312 308 303 303 301 299 299 301 301 300 299 300 302 305 301 295 293 294 294 296 298 297 298 296 290 285 286 291 294 298 298 297 297 302
312 312 312 312 313 313 314 314 315 315 314 317 316 318 312 305 302 304 301 301 298 298 299 299 304 306 303 298 293 288 287 290 290 293 298 297 297 294 289 283 282 293 300 303 302 292 303
312 312 312 312 313 313 314 314 315 316 315 314 316 320 314 306 307 307 302 301 303 300 297 299 301 301 303 294 291 289 288 291 286 286 289 292 293 289 288 286 289 298 299 302 289 293 306
311 311 311 312 312 313 313 313 315 316 315 315 316 320 313 309 308 310 308 305 305 304 297 302 300 300 298 293 290 289 288 291 287 291 290 289 289 289 290 287 284 302 300 294 301 305 305
311 311 311 311 312 313 313 313 314 315 315 314 315 320 319 311 309 315 313 313 310 308 305 303 300 301 301 296 294 292 289 291 289 286 294 288 290 286 291 292 301 302 300 303 303 302 303

GFSGBSN_sfc_thetae_075.txt.gz
Theta_e
319 319 319 318 319 319 318 316 317 317 317 317 317 317 318 318 318 318 318 319 318 318 321 322 320 322 316 310 310 326 346 344 333 322 313 309 318 319 314 317 319 318 321 325 328 331 332
319 319 319 318 319 318 318 317 316 317 317 317 317 318 318 318 318 318 318 318 317 317 322 323 321 322 310 303 316 328 332 331 323 318 313 313 323 325 318 318 316 320 321 321 324 324 330
319 319 318 318 318 318 318 317 316 316 316 316 317 317 317 318 317 317 317 316 316 317 322 325 324 320 313 310 319 316 315 324 324 317 311 319 325 323 320 315 320 318 310 312 316 316 323
320 320 318 318 318 318 318 317 317 316 316 316 317 317 317 317 316 316 316 315 316 318 323 323 324 318 312 325 315 315 313 315 325 320 314 317 324 323 317 318 316 307 305 301 310 314 319
320 319 319 318 318 318 317 317 317 316 316 316 316 316 316 316 316 315 314 314 317 319 325 324 317 314 312 318 309 312 313 316 321 319 317 320 317 315 315 307 303 304 295 299 305 312 315
320 320 319 318 318 317 317 317 316 316 316 316 316 315 315 315 314 313 313 315 319 317 322 323 320 309 314 308 307 312 312 314 317 316 314 312 313 308 306 300 295 299 297 299 300 307 311
321 320 318 318 318 318 317 317 316 316 316 316 316 315 315 314 313 312 310 308 309 307 311 311 308 312 308 309 311 311 313 310 314 313 307 312 303 300 303 305 305 305 304 301 303 307 306
321 319 318 318 318 317 317 316 315 315 316 316 315 314 314 313 312 312 309 304 306 305 299 308 310 309 308 305 304 309 313 306 309 305 310 305 302 308 311 309 307 304 302 302 305 308 302
321 319 318 318 317 317 316 316 315 315 315 315 315 314 313 312 311 311 307 309 313 309 298 304 306 304 304 303 303 306 310 310 308 306 307 302 305 312 309 307 304 303 300 302 302 306 306
321 319 318 317 317 316 316 315 315 315 315 314 314 314 312 311 308 310 310 312 312 310 291 300 300 303 304 303 300 309 307 303 305 303 304 303 310 309 305 304 305 296 306 306 304 300 293
320 319 317 317 316 316 315 315 315 315 314 314 314 313 311 309 304 306 310 312 311 305 285 302 300 307 304 299 301 302 309 303 298 300 300 300 304 305 304 305 306 301 307 304 303 298 294
319 318 317 316 316 316 315 315 314 314 313 313 313 312 310 311 308 310 315 312 309 291 287 298 302 299 298 299 301 305 303 303 305 301 301 300 306 303 303 307 307 308 303 302 299 295 289
318 317 316 316 316 315 315 314 314 313 313 312 311 309 307 311 308 314 312 308 292 288 301 296 296 299 298 296 299 300 298 295 292 287 289 296 299 303 305 300 304 302 295 288 287 288 289
317 316 316 315 315 315 314 314 314 313 312 311 308 307 311 312 314 315 309 299 290 299 297 301 300 299 296 299 297 299 296 293 298 295 291 288 289 297 302 298 298 299 295 289 284 285 290
317 316 316 315 315 313 314 314 313 313 312 310 307 313 311 315 316 313 303 293 293 297 300 299 300 296 295 299 298 297 294 294 297 297 289 290 291 301 303 303 301 297 295 298 291 293 291
316 316 316 315 314 314 314 314 313 312 311 309 306 310 313 315 316 309 300 296 298 301 302 301 295 298 294 297 296 293 294 299 299 301 298 293 287 296 300 301 301 298 300 291 291 285 286
316 316 315 315 314 314 314 314 313 312 310 309 309 309 313 315 313 305 297 299 301 303 303 298 296 295 295 295 295 294 295 298 301 300 300 292 289 291 296 292 293 295 293 293 292 291 289
316 315 315 315 314 314 315 314 313 311 309 310 311 304 313 314 303 305 298 299 299 301 303 300 300 298 295 296 294 293 294 297 302 300 294 296 290 286 291 299 300 297 294 295 289 289 292
315 315 315 314 314 315 314 314 312 311 310 306 306 309 314 312 297 298 301 300 299 298 298 297 297 298 298 293 290 295 296 300 301 299 295 295 289 283 287 291 294 294 296 296 293 291 289
315 315 314 314 314 314 315 314 312 312 311 307 308 301 306 307 304 299 298 297 296 302 299 298 297 298 294 292 295 292 295 299 301 300 305 298 288 286 283 288 292 291 294 296 291 287 290
314 314 314 314 314 315 315 314 313 311 311 309 309 300 303 296 297 299 299 297 295 294 299 299 298 295 293 288 291 291 294 295 298 302 299 294 286 289 291 293 293 292 293 294 292 291 286
314 314 314 314 314 315 315 315 314 312 310 312 303 302 304 300 302 298 297 295 293 294 296 294 294 295 295 289 291 289 292 291 291 296 293 295 288 290 289 293 293 291 294 295 295 295 293
314 314 313 314 314 315 315 315 314 312 311 311 312 312 306 300 299 296 294 295 295 298 299 299 297 295 293 295 297 297 297 295 294 291 291 292 289 286 282 291 291 287 291 293 295 297 295
313 313 313 313 313 314 315 315 315 314 312 312 313 311 305 297 298 296 298 298 298 298 296 299 300 295 299 303 301 299 298 296 296 294 294 290 289 290 283 288 279 290 297 297 296 297 299
313 312 312 313 313 314 315 316 316 315 314 312 316 312 307 297 300 300 300 299 300 301 298 299 300 302 303 299 292 290 291 292 294 296 295 293 291 284 282 283 287 290 295 296 293 293 302
313 312 312 312 313 314 315 315 316 316 314 315 317 318 312 304 299 304 301 301 296 296 298 299 305 304 301 295 293 287 285 287 286 290 296 295 293 289 286 281 279 291 297 301 298 287 302
312 312 312 312 313 313 314 315 316 317 315 313 316 319 313 306 306 306 300 300 303 299 295 299 300 298 302 293 289 286 285 290 283 284 286 288 289 286 286 283 287 296 299 301 287 288 300
312 312 312 311 312 313 314 314 315 317 316 313 317 320 312 307 308 310 309 304 303 302 295 299 298 298 295 290 288 288 285 287 286 288 289 287 285 286 286 283 279 298 298 291 294 297 298
311 311 311 311 312 313 314 314 315 316 316 314 315 321 320 311 309 314 314 314 311 308 302 302 298 298 297 294 291 290 286 288 287 283 291 285 289 286 287 288 295 295 294 296 297 295 296